Flag for Russia Weather past 2 weeks in Novorossiysk, Russia

Now
61 °F

Clear.


Feels Like: 61 °F
Forecast: 55 / 85 °F
Wind: 6 mph from Northeast

Location: Anapa / Vitiazevo

Current Time: Aug 30, 2015 at 9:44:36 PM

Latest Report: Aug 30, 2015 at 9:00 PM


Visibility: 10 mi

Pressure: 30.09 "Hg

Humidity: 77%

Dew point: 54 °F

Location of NovorossiyskLocation

Historic Weather in Novorossiysk — Graph

°F

Novorossiysk temperature yesterday

Maximum temperature yesterday: 90 °F (at 1:00 PM)
Minimum temperature yesterday: 55 °F (at 11:30 PM)
Average temperature yesterday: 74 °F

Past Weeks' High & Low Weather Summary

 TemperatureHumidityPressure
High90 °F (Aug 29, 1:00 PM)100% (Aug 16, 11:00 PM)30.12 "Hg (Aug 16, 11:00 PM)
Low55 °F (Aug 27, 3:00 AM)20% (Aug 26, 2:30 PM)29.74 "Hg (Aug 15, 11:30 PM)
Average73 °F60%29.93 "Hg
* Reported Aug 15 8:00 PM — Aug 30 8:00 PM, Novorossiysk, Weather by CustomWeather, © 2015

Note: Actual official high and low records may vary slightly from our data, if they occured in-between our weather recording intervals... More about our weather records

Advertising

Novorossiysk weather history for previous 24 hours

 ConditionsComfort  
Time TempWeatherWind HumidityBarometerVisibility
8:00 PM
Sun, Aug 30
68 °FSunny.8 mph64%30.09 "Hg10 mi
7:30 PM70 °FSunny.10 mph60%30.09 "Hg10 mi
7:00 PM73 °FSunny.10 mph47%30.09 "Hg10 mi
6:30 PM75 °FSunny.10 mph44%30.09 "Hg10 mi
6:00 PM77 °FSunny.15 mph39%30.09 "Hg10 mi
5:30 PM77 °FSunny.15 mph39%30.09 "Hg10 mi
5:00 PM79 °FSunny.15 mph39%30.09 "Hg10 mi
4:30 PM79 °FSunny.15 mph37%30.09 "Hg10 mi
4:00 PM81 °FSunny.17 mph34%30.09 "Hg10 mi
3:30 PM81 °FSunny.17 mph37%30.09 "Hg10 mi
3:00 PM81 °FSunny.20 mph39%30.09 "Hg10 mi
2:30 PM82 °FSunny.17 mph40%30.09 "Hg10 mi
2:00 PM82 °FSunny.20 mph42%30.07 "Hg10 mi
1:30 PM82 °FSunny.15 mph48%30.07 "Hg10 mi
1:00 PM84 °FSunny.15 mph48%30.07 "Hg10 mi
12:30 PM82 °FSunny.15 mph51%30.07 "Hg10 mi
12:00 PM81 °FSunny.15 mph54%30.07 "Hg10 mi
11:30 AM81 °FPassing clouds.15 mph58%30.07 "HgN/A
11:00 AM81 °FSunny.13 mph58%30.07 "Hg10 mi
10:30 AM79 °FPassing clouds.13 mph61%30.07 "HgN/A
10:00 AM77 °FPassing clouds.6 mph69%30.07 "HgN/A
9:30 AM77 °FPassing clouds.6 mph69%30.07 "HgN/A
9:00 AM77 °FPassing clouds.6 mph69%30.07 "HgN/A
8:30 AM75 °FSunny.6 mph69%30.07 "Hg10 mi
8:00 AM73 °FSunny.6 mph69%30.04 "Hg10 mi
7:30 AM73 °FPassing clouds.3 mph61%30.04 "HgN/A
6:30 AM61 °FClear.6 mph63%30.04 "Hg10 mi
6:00 AM59 °FClear.6 mph68%30.04 "Hg10 mi
5:30 AM57 °FClear.6 mph72%30.04 "Hg10 mi
5:00 AM57 °FClear.8 mph67%30.04 "Hg10 mi
4:00 AM55 °FClear.6 mph72%30.07 "Hg10 mi
3:00 AM57 °FClear.6 mph67%30.07 "Hg10 mi
2:00 AM57 °FClear.1 mph67%30.07 "Hg10 mi
1:00 AM61 °FClear.3 mph63%30.07 "Hg10 mi
12:00 AM57 °FClear.3 mph72%30.07 "Hg10 mi
11:30 PM
Sat, Aug 29
55 °FClear.6 mph77%30.07 "Hg10 mi
11:00 PM59 °FClear.3 mph72%30.09 "Hg10 mi
10:30 PM63 °FClear.3 mph68%30.09 "Hg10 mi
10:00 PM61 °FClear.6 mph68%30.09 "Hg10 mi
9:30 PM64 °FClear.1 mph68%30.09 "Hg10 mi
9:00 PM66 °FClear.3 mph68%30.09 "Hg10 mi
Weather by CustomWeather, © 2015

See weather overviewHow to use our weather pages